BEIJING 1

Last updated on Wed Sep 09 2026 00:02:51 GMT+0000 (Coordinated Universal Time)

1 28890U 05043A 26251.62725964 .00000469 00000+0 99795-4 0 9997 2 28890 98.3023 25.3587 0015202 25.5270 334.6679 14.63575036112850
UTC large
Height (km)
Speed (km/s)
/
Latitude / Longitude
Inclination (degrees)
Orbital Period (minutes)
Azimuth
Elevation
Range (km)
Doppler Factor

Next 0 passes for location: London (51.5072 / 0.1276)

No passes found over London.
BEIJING 1